Flag for Netherlands Weather past 2 weeks in Utrecht, Netherlands

Now
41 °F

Passing clouds.


Feels Like: 32 °F
Forecast: 36 / 44 °F
Wind: 21 mph from West

Location: Amsterdam Schiphol Airport

Current Time: Mar 2, 2015 at 2:31:10 AM

Latest Report: Mar 2, 2015 at 1:55 AM


Visibility: N/A

Pressure: 29.42 "Hg

Humidity: 76%

Dew point: 34 °F

Location of UtrechtLocation

Historic Weather in Utrecht — Graph

°F

Utrecht temperature yesterday

Maximum temperature yesterday: 50 °F (at 10:55 AM)
Minimum temperature yesterday: 43 °F (at 2:25 AM)
Average temperature yesterday: 47 °F

Past Weeks' High & Low Weather Summary

 TemperatureHumidityPressure
High50 °F (Mar 1, 10:55 AM)100% (Feb 15, 11:55 PM)30.74 "Hg (Feb 15, 11:55 PM)
Low27 °F (Feb 16, 4:55 AM)50% (Feb 18, 3:25 PM)29.24 "Hg (Feb 23, 3:25 AM)
Average40 °F86%29.89 "Hg
* Reported Feb 15 1:25 AM — Mar 2 1:25 AM, Utrecht, Weather by CustomWeather, © 2015

Note: Actual official high and low records may vary slightly from our data, if they occured in-between our weather recording intervals... More about our weather records

Advertising

Utrecht weather history for previous 24 hours

 ConditionsComfort  
Time TempWeatherWind HumidityBarometerVisibility
1:25 AM
Mon, Mar 2
41 °FPassing clouds.25 mph81%29.42 "HgN/A
12:55 AM41 °FPassing clouds.24 mph81%29.39 "HgN/A
12:25 AM45 °FPassing clouds.24 mph81%29.39 "HgN/A
11:55 PM
Sun, Mar 1
45 °FPassing clouds.25 mph81%29.39 "HgN/A
11:25 PM43 °FPassing clouds.16 mph93%29.36 "HgN/A
10:55 PM43 °FRain showers. Partly cloudy.33 mph87%29.42 "Hg4 mi
10:25 PM46 °FSprinkles. Partly cloudy.18 mph82%29.39 "HgN/A
9:55 PM46 °FPartly cloudy.20 mph76%29.42 "HgN/A
9:25 PM46 °FPassing clouds.18 mph71%29.45 "HgN/A
8:25 PM45 °FClear.21 mph76%29.47 "Hg10 mi
7:55 PM45 °FClear.17 mph81%29.50 "Hg10 mi
7:25 PM45 °FPassing clouds.15 mph81%29.50 "HgN/A
6:55 PM46 °FClear.14 mph76%29.50 "Hg10 mi
6:25 PM46 °FClear.16 mph71%29.53 "Hg10 mi
5:55 PM46 °FPassing clouds.20 mph71%29.53 "HgN/A
5:25 PM48 °FPassing clouds.20 mph66%29.53 "HgN/A
4:55 PM48 °FPassing clouds.25 mph66%29.53 "HgN/A
4:25 PM50 °FPassing clouds.25 mph62%29.53 "HgN/A
3:55 PM50 °FPassing clouds.23 mph62%29.53 "HgN/A
3:25 PM50 °FPassing clouds.25 mph62%29.53 "HgN/A
2:55 PM50 °FPassing clouds.29 mph62%29.53 "HgN/A
2:25 PM50 °FPassing clouds.26 mph67%29.53 "HgN/A
1:55 PM50 °FPassing clouds.29 mph62%29.53 "HgN/A
1:25 PM50 °FPassing clouds.31 mph67%29.53 "HgN/A
12:55 PM50 °FPassing clouds.26 mph67%29.53 "HgN/A
12:25 PM50 °FPassing clouds.29 mph67%29.53 "HgN/A
11:55 AM50 °FPassing clouds.26 mph67%29.53 "HgN/A
11:25 AM48 °FPassing clouds.29 mph76%29.53 "HgN/A
10:55 AM50 °FPassing clouds.25 mph71%29.50 "HgN/A
10:25 AM48 °FScattered clouds.26 mph76%29.50 "HgN/A
9:55 AM48 °FPassing clouds.21 mph76%29.50 "HgN/A
9:25 AM48 °FPassing clouds.25 mph71%29.47 "HgN/A
8:55 AM46 °FScattered showers. Passing clouds.21 mph76%29.47 "HgN/A
8:25 AM46 °FPassing clouds.22 mph82%29.47 "HgN/A
7:55 AM46 °FPassing clouds.23 mph82%29.45 "HgN/A
7:25 AM46 °FPassing clouds.23 mph87%29.42 "HgN/A
6:55 AM48 °FPassing clouds.24 mph82%29.42 "HgN/A
6:25 AM48 °FPassing clouds.25 mph87%29.42 "HgN/A
5:55 AM48 °FPartly cloudy.22 mph94%29.42 "HgN/A
5:25 AM46 °FPassing clouds.21 mph93%29.42 "HgN/A
4:55 AM45 °FPassing clouds.22 mph100%29.42 "Hg4 mi
4:25 AM45 °FPassing clouds.23 mph93%29.42 "Hg2 mi
3:55 AM45 °FPassing clouds.23 mph93%29.45 "Hg2 mi
3:25 AM43 °FPassing clouds.22 mph100%29.45 "Hg3 mi
2:55 AM43 °FPartly cloudy.21 mph93%29.45 "Hg3 mi
2:25 AM43 °FDrizzle. Mostly cloudy.23 mph93%29.47 "HgN/A
Weather by CustomWeather, © 2015

See weather overviewHow to use our weather pages